Regional Weather Roundup
Issued by NWS Goodland, KS

Home | Current Version | Previous Version | Text Only | Print | Product List | Glossary Off
Versions: 1 2 3 4 5 6 7 8 9 10 11 12 13 14 15 16 17 18 19 20 21 22 23 24 25 26 27 28 29 30 31 32 33 34 35 36 37 38 39 40 41 42 43 44 45 46 47 48 49 50

000
ASUS43 KGLD 271008
RWRGLD

GOODLAND FORECAST AREA HOURLY WEATHER ROUNDUP
NATIONAL WEATHER SERVICE GOODLAND KS
400 AM MDT WED AUG 27 2014

...OFFICIAL OBSERVATIONS...

CITY           SKY/WX    TMP DP  RH WIND       PRES   REMARKS
GOODLAND KS    CLOUDY    64  63  96 E7        30.14F
HILL CITY KS   CLOUDY    70  66  87 CALM      30.12R
IMPERIAL NEB   CLOUDY    66  63  90 CALM      30.13R
MCCOOK NEB     CLOUDY    67  65  93 NE6       30.10F
AKRON CO       MOCLDY    63  59  87 CALM      30.15F
BURLINGTON CO  PTCLDY    60  59  96 S6        30.14F
LIMON CO       CLOUDY    58  56  93 CALM      30.18F
$$

...UNOFFICIAL OBSERVATIONS...

CITY           SKY/WX    TMP DP  RH WIND       PRES   REMARKS
COLBY KS       CLEAR     64  64 100 SE3       30.14F
GOVE KS          N/A     68  32  26 CALM        N/A
NORTON KS      PTCLDY    68  64  88 E5        30.10S
SHARON SPRINGS   N/A     64  63  96 S8          N/A
WAKEENEY KS      N/A     69  66  90 MISG        N/A
KIT CARSON CO    N/A     61  58  91 MISG        N/A
YUMA CO          N/A     62  58  87 CALM        N/A
$$


USA.gov is the U.S. government's official web portal to all federal, state and local government web resources and services.